owner,sensor,date,latitude,longitude,vertical_datum,direction_of_sea_water_velocity,sea_water_speed,upward_sea_water_velocity,qcFlag 
TABS,ioos:station:wmo:42043:1,2002-01-01T00:00:00Z,28.9818,-94.9186,2.0,237.5318651,38.74630434,-99999.0,'11111222,11111222,99999999' 
TABS,ioos:station:wmo:42043:1,2002-01-01T00:30:00Z,28.9818,-94.9186,2.0,233.1722325,53.97001482,-99999.0,'11111222,11111222,99999999' 
TABS,ioos:station:wmo:42043:1,2002-01-01T01:00:00Z,28.9818,-94.9186,2.0,232.3731066,57.85304486,-99999.0,'11111222,11111222,99999999' 
TABS,ioos:station:wmo:42043:1,2002-01-01T01:30:00Z,28.9818,-94.9186,2.0,230.3020556,57.08150313,-99999.0,'11111222,11111222,99999999' 
TABS,ioos:station:wmo:42043:1,2002-01-01T02:00:00Z,28.9818,-94.9186,2.0,228.8443988,59.79316767,-99999.0,'11111222,11111222,99999999' 
TABS,ioos:station:wmo:42043:1,2002-01-01T02:30:00Z,28.9818,-94.9186,2.0,227.3090759,58.61018683,-99999.0,'11111222,11111222,99999999' 
TABS,ioos:station:wmo:42043:1,2002-01-01T03:00:00Z,28.9818,-94.9186,2.0,222.7116769,62.34581141,-99999.0,'11111222,11111222,99999999' 
TABS,ioos:station:wmo:42043:1,2002-01-01T03:30:00Z,28.9818,-94.9186,2.0,226.1817174,64.09872776,-99999.0,'11111222,11111222,99999999' 
TABS,ioos:station:wmo:42043:1,2002-01-01T04:00:00Z,28.9818,-94.9186,2.0,222.1044961,66.63794715,-99999.0,'11111222,11111222,99999999' 
TABS,ioos:station:wmo:42043:1,2002-01-01T04:30:00Z,28.9818,-94.9186,2.0,221.4905177,64.34715922,-99999.0,'11111222,11111222,99999999' 
TABS,ioos:station:wmo:42043:1,2002-01-01T05:00:00Z,28.9818,-94.9186,2.0,222.1723144,59.49060178,-99999.0,'11111222,11111222,99999999' 
TABS,ioos:station:wmo:42043:1,2002-01-01T05:30:00Z,28.9818,-94.9186,2.0,218.2012361,59.55408382,-99999.0,'11111222,11111222,99999999' 
TABS,ioos:station:wmo:42043:1,2002-01-01T06:00:00Z,28.9818,-94.9186,2.0,218.5845882,56.13514496,-99999.0,'11111222,11111222,99999999' 
TABS,ioos:station:wmo:42043:1,2002-01-01T06:30:00Z,28.9818,-94.9186,2.0,220.7202308,56.28706779,-99999.0,'11111222,11111222,99999999' 
TABS,ioos:station:wmo:42043:1,2002-01-01T07:00:00Z,28.9818,-94.9186,2.0,220.8561485,54.31341731,-99999.0,'11111222,11111222,99999999' 
TABS,ioos:station:wmo:42043:1,2002-01-01T07:30:00Z,28.9818,-94.9186,2.0,214.7130804,51.71462656,-99999.0,'11111222,11111222,99999999' 
TABS,ioos:station:wmo:42043:1,2002-01-01T08:00:00Z,28.9818,-94.9186,2.0,212.8876787,49.13461102,-99999.0,'11111222,11111222,99999999' 
TABS,ioos:station:wmo:42043:1,2002-01-01T08:30:00Z,28.9818,-94.9186,2.0,217.0188787,42.2201433,-99999.0,'11111222,11111222,99999999' 
TABS,ioos:station:wmo:42043:1,2002-01-01T09:00:00Z,28.9818,-94.9186,2.0,217.8640201,42.40838714,-99999.0,'11111222,11111222,99999999' 
TABS,ioos:station:wmo:42043:1,2002-01-01T09:30:00Z,28.9818,-94.9186,2.0,217.3064712,46.16534198,-99999.0,'11111222,11111222,99999999' 
TABS,ioos:station:wmo:42043:1,2002-01-01T10:00:00Z,28.9818,-94.9186,2.0,218.730839,43.90516371,-99999.0,'11111222,11111222,99999999' 
TABS,ioos:station:wmo:42043:1,2002-01-01T10:30:00Z,28.9818,-94.9186,2.0,223.4410636,46.0143206,-99999.0,'11111222,11111222,99999999' 
TABS,ioos:station:wmo:42043:1,2002-01-01T11:00:00Z,28.9818,-94.9186,2.0,220.5632956,46.16389607,-99999.0,'11111222,11111222,99999999' 
TABS,ioos:station:wmo:42043:1,2002-01-01T11:30:00Z,28.9818,-94.9186,2.0,226.2495401,45.06049378,-99999.0,'11111222,11111222,99999999' 
TABS,ioos:station:wmo:42043:1,2002-01-01T12:00:00Z,28.9818,-94.9186,2.0,221.8006671,58.54066962,-99999.0,'11111222,11111222,99999999' 
TABS,ioos:station:wmo:42043:1,2002-01-01T12:30:00Z,28.9818,-94.9186,2.0,223.6917918,52.66489153,-99999.0,'11111222,11111222,99999999' 
TABS,ioos:station:wmo:42043:1,2002-01-01T13:00:00Z,28.9818,-94.9186,2.0,225.8625053,51.65293602,-99999.0,'11111222,11111222,99999999' 
TABS,ioos:station:wmo:42043:1,2002-01-01T13:30:00Z,28.9818,-94.9186,2.0,226.6956056,48.74100738,-99999.0,'11111222,11111222,99999999' 
TABS,ioos:station:wmo:42043:1,2002-01-01T14:00:00Z,28.9818,-94.9186,2.0,225.0083773,46.60540848,-99999.0,'11111222,11111222,99999999' 
TABS,ioos:station:wmo:42043:1,2002-01-01T14:30:00Z,28.9818,-94.9186,2.0,223.1859887,44.68324966,-99999.0,'11111222,11111222,99999999' 
TABS,ioos:station:wmo:42043:1,2002-01-01T15:00:00Z,28.9818,-94.9186,2.0,227.1869682,49.83784205,-99999.0,'11111222,11111222,99999999' 
TABS,ioos:station:wmo:42043:1,2002-01-01T15:30:00Z,28.9818,-94.9186,2.0,228.3068799,39.34530849,-99999.0,'11111222,11111222,99999999' 
TABS,ioos:station:wmo:42043:1,2002-01-01T16:00:00Z,28.9818,-94.9186,2.0,228.4842461,48.74613933,-99999.0,'11111222,11111222,99999999' 
TABS,ioos:station:wmo:42043:1,2002-01-01T16:30:00Z,28.9818,-94.9186,2.0,229.7294765,36.78876595,-99999.0,'11111222,11111222,99999999' 
TABS,ioos:station:wmo:42043:1,2002-01-01T17:00:00Z,28.9818,-94.9186,2.0,241.1837851,39.62686462,-99999.0,'11111222,11111222,99999999' 
TABS,ioos:station:wmo:42043:1,2002-01-01T17:30:00Z,28.9818,-94.9186,2.0,249.2196035,40.41929861,-99999.0,'11111222,11111222,99999999' 
TABS,ioos:station:wmo:42043:1,2002-01-01T18:00:00Z,28.9818,-94.9186,2.0,241.2215133,33.81668227,-99999.0,'11111222,11111222,99999999' 
TABS,ioos:station:wmo:42043:1,2002-01-01T18:30:00Z,28.9818,-94.9186,2.0,237.211959,33.4608921,-99999.0,'11111222,11111222,99999999' 
TABS,ioos:station:wmo:42043:1,2002-01-01T19:00:00Z,28.9818,-94.9186,2.0,228.9911168,35.55471558,-99999.0,'11111222,11111222,99999999' 
TABS,ioos:station:wmo:42043:1,2002-01-01T19:30:00Z,28.9818,-94.9186,2.0,230.022203,31.58043857,-99999.0,'11111222,11111222,99999999' 
TABS,ioos:station:wmo:42043:1,2002-01-01T20:00:00Z,28.9818,-94.9186,2.0,243.910093,33.94915316,-99999.0,'11111222,11111222,99999999' 
TABS,ioos:station:wmo:42043:1,2002-01-01T20:30:00Z,28.9818,-94.9186,2.0,237.1059674,26.9388437,-99999.0,'11111222,11111222,99999999' 
TABS,ioos:station:wmo:42043:1,2002-01-01T21:00:00Z,28.9818,-94.9186,2.0,249.9712084,25.9280543,-99999.0,'11111222,11111222,99999999' 
TABS,ioos:station:wmo:42043:1,2002-01-01T21:30:00Z,28.9818,-94.9186,2.0,244.4222051,30.87574129,-99999.0,'11111222,11111222,99999999' 
TABS,ioos:station:wmo:42043:1,2002-01-01T22:00:00Z,28.9818,-94.9186,2.0,239.8941056,25.41894176,-99999.0,'11111222,11111222,99999999' 
TABS,ioos:station:wmo:42043:1,2002-01-01T22:30:00Z,28.9818,-94.9186,2.0,232.5345889,30.03562052,-99999.0,'11111222,11111222,99999999' 
TABS,ioos:station:wmo:42043:1,2002-01-01T23:00:00Z,28.9818,-94.9186,2.0,240.997702,22.19292004,-99999.0,'11111222,11111222,99999999' 
TABS,ioos:station:wmo:42043:1,2002-01-01T23:30:00Z,28.9818,-94.9186,2.0,230.0650861,51.17519028,-99999.0,'11111222,11111222,99999999' 
TABS,ioos:station:wmo:42043:1,2002-01-02T00:00:00Z,28.9818,-94.9186,2.0,225.7721336,61.89161009,-99999.0,'11111222,11111222,99999999' 
TABS,ioos:station:wmo:42043:1,2002-01-02T00:30:00Z,28.9818,-94.9186,2.0,232.9804899,42.2201433,-99999.0,'11111222,11111222,99999999' 
TABS,ioos:station:wmo:42043:1,2002-01-02T01:00:00Z,28.9818,-94.9186,2.0,234.8678955,50.04702688,-99999.0,'11111222,11111222,99999999' 
TABS,ioos:station:wmo:42043:1,2002-01-02T01:30:00Z,28.9818,-94.9186,2.0,234.9728712,41.84965113,-99999.0,'11111222,11111222,99999999' 
TABS,ioos:station:wmo:42043:1,2002-01-02T02:00:00Z,28.9818,-94.9186,2.0,238.9287911,39.44988847,-99999.0,'11111222,11111222,99999999' 
TABS,ioos:station:wmo:42043:1,2002-01-02T02:30:00Z,28.9818,-94.9186,2.0,237.3325536,43.96422409,-99999.0,'11111222,11111222,99999999' 
TABS,ioos:station:wmo:42043:1,2002-01-02T03:00:00Z,28.9818,-94.9186,2.0,231.9359609,44.73370988,-99999.0,'11111222,11111222,99999999' 
TABS,ioos:station:wmo:42043:1,2002-01-02T03:30:00Z,28.9818,-94.9186,2.0,236.8945763,49.9838664,-99999.0,'11111222,11111222,99999999' 
TABS,ioos:station:wmo:42043:1,2002-01-02T04:00:00Z,28.9818,-94.9186,2.0,229.4731063,62.37298293,-99999.0,'11111222,11111222,99999999' 
TABS,ioos:station:wmo:42043:1,2002-01-02T04:30:00Z,28.9818,-94.9186,2.0,224.8126761,62.82677216,-99999.0,'11111222,11111222,99999999' 
TABS,ioos:station:wmo:42043:1,2002-01-02T05:00:00Z,28.9818,-94.9186,2.0,229.8319642,60.77263858,-99999.0,'11111222,11111222,99999999' 
TABS,ioos:station:wmo:42043:1,2002-01-02T05:30:00Z,28.9818,-94.9186,2.0,226.9059082,64.62289532,-99999.0,'11111222,11111222,99999999' 
TABS,ioos:station:wmo:42043:1,2002-01-02T06:00:00Z,28.9818,-94.9186,2.0,221.973735,67.91330135,-99999.0,'11111222,11111222,99999999' 
TABS,ioos:station:wmo:42043:1,2002-01-02T06:30:00Z,28.9818,-94.9186,2.0,226.3490378,64.85967777,-99999.0,'11111222,11111222,99999999' 
TABS,ioos:station:wmo:42043:1,2002-01-02T07:00:00Z,28.9818,-94.9186,2.0,228.2585975,61.94373253,-99999.0,'11111222,11111222,99999999' 
TABS,ioos:station:wmo:42043:1,2002-01-02T07:30:00Z,28.9818,-94.9186,2.0,224.9188198,65.13167048,-99999.0,'11111222,11111222,99999999' 
TABS,ioos:station:wmo:42043:1,2002-01-02T08:00:00Z,28.9818,-94.9186,2.0,222.91445,66.07338496,-99999.0,'11111222,11111222,99999999' 
TABS,ioos:station:wmo:42043:1,2002-01-02T08:30:00Z,28.9818,-94.9186,2.0,225.1276905,63.30035703,-99999.0,'11111222,11111222,99999999' 
TABS,ioos:station:wmo:42043:1,2002-01-02T09:00:00Z,28.9818,-94.9186,2.0,225.0516414,62.38098589,-99999.0,'11111222,11111222,99999999' 
TABS,ioos:station:wmo:42043:1,2002-01-02T09:30:00Z,28.9818,-94.9186,2.0,223.8048452,62.394527,-99999.0,'11111222,11111222,99999999' 
TABS,ioos:station:wmo:42043:1,2002-01-02T10:00:00Z,28.9818,-94.9186,2.0,226.7607174,55.22283767,-99999.0,'11111222,11111222,99999999' 
TABS,ioos:station:wmo:42043:1,2002-01-02T10:30:00Z,28.9818,-94.9186,2.0,218.6105593,71.29491006,-99999.0,'11111222,11111222,99999999' 
TABS,ioos:station:wmo:42043:1,2002-01-02T11:00:00Z,28.9818,-94.9186,2.0,218.2528682,69.09613593,-99999.0,'11111222,11111222,99999999' 
TABS,ioos:station:wmo:42043:1,2002-01-02T11:30:00Z,28.9818,-94.9186,2.0,220.3971075,67.05905233,-99999.0,'11111222,11111222,99999999' 
TABS,ioos:station:wmo:42043:1,2002-01-02T12:00:00Z,28.9818,-94.9186,2.0,222.6663699,62.17795429,-99999.0,'11111222,11111222,99999999' 
TABS,ioos:station:wmo:42043:1,2002-01-02T12:30:00Z,28.9818,-94.9186,2.0,224.0414653,57.92721726,-99999.0,'11111222,11111222,99999999' 
TABS,ioos:station:wmo:42043:1,2002-01-02T13:00:00Z,28.9818,-94.9186,2.0,222.9122431,58.82082029,-99999.0,'11111222,11111222,99999999' 
TABS,ioos:station:wmo:42043:1,2002-01-02T13:30:00Z,28.9818,-94.9186,2.0,222.5713049,55.23929127,-99999.0,'11111222,11111222,99999999' 
TABS,ioos:station:wmo:42043:1,2002-01-02T14:00:00Z,28.9818,-94.9186,2.0,217.9125209,61.09412083,-99999.0,'11111222,11111222,99999999' 
TABS,ioos:station:wmo:42043:1,2002-01-02T14:30:00Z,28.9818,-94.9186,2.0,218.2027787,55.44500879,-99999.0,'11111222,11111222,99999999' 
TABS,ioos:station:wmo:42043:1,2002-01-02T15:00:00Z,28.9818,-94.9186,2.0,219.2680706,55.58069179,-99999.0,'11111222,11111222,99999999' 
TABS,ioos:station:wmo:42043:1,2002-01-02T16:00:00Z,28.9818,-94.9186,2.0,216.7702896,48.4620728,-99999.0,'11111222,11111222,99999999' 
TABS,ioos:station:wmo:42043:1,2002-01-02T16:30:00Z,28.9818,-94.9186,2.0,215.9508441,51.38860671,-99999.0,'11111222,11111222,99999999' 
TABS,ioos:station:wmo:42043:1,2002-01-02T17:00:00Z,28.9818,-94.9186,2.0,223.4734265,46.98977442,-99999.0,'11111222,11111222,99999999' 
TABS,ioos:station:wmo:42043:1,2002-01-02T17:30:00Z,28.9818,-94.9186,2.0,226.3742188,43.62689996,-99999.0,'11111222,11111222,99999999' 
TABS,ioos:station:wmo:42043:1,2002-01-02T18:00:00Z,28.9818,-94.9186,2.0,222.1747188,39.45500855,-99999.0,'11111222,11111222,99999999' 
TABS,ioos:station:wmo:42043:1,2002-01-02T18:30:00Z,28.9818,-94.9186,2.0,220.6568078,43.42082104,-99999.0,'11111222,11111222,99999999' 
TABS,ioos:station:wmo:42043:1,2002-01-02T19:30:00Z,28.9818,-94.9186,2.0,218.6569609,35.13909646,-99999.0,'11111222,11111222,99999999' 
TABS,ioos:station:wmo:42043:1,2002-01-02T20:00:00Z,28.9818,-94.9186,2.0,222.6709048,33.93379584,-99999.0,'11111222,11111222,99999999' 
TABS,ioos:station:wmo:42043:1,2002-01-02T20:30:00Z,28.9818,-94.9186,2.0,237.5728562,37.6150422,-99999.0,'11111222,11111222,99999999' 
TABS,ioos:station:wmo:42043:1,2002-01-02T21:00:00Z,28.9818,-94.9186,2.0,242.2920933,29.83060509,-99999.0,'11111222,11111222,99999999' 
TABS,ioos:station:wmo:42043:1,2002-01-02T21:30:00Z,28.9818,-94.9186,2.0,246.432957,26.16203356,-99999.0,'11111222,11111222,99999999' 
TABS,ioos:station:wmo:42043:1,2002-01-02T22:00:00Z,28.9818,-94.9186,2.0,247.0206354,24.66740765,-99999.0,'11111222,11111222,99999999' 
TABS,ioos:station:wmo:42043:1,2002-01-02T22:30:00Z,28.9818,-94.9186,2.0,248.1160118,27.17839767,-99999.0,'11111222,11111222,99999999' 
TABS,ioos:station:wmo:42043:1,2002-01-02T23:00:00Z,28.9818,-94.9186,2.0,244.8934803,20.55165443,-99999.0,'11111222,11111222,99999999' 
TABS,ioos:station:wmo:42043:1,2002-01-02T23:30:00Z,28.9818,-94.9186,2.0,253.2309538,20.55400934,-99999.0,'11111222,11111222,99999999' 
TABS,ioos:station:wmo:42043:1,2002-01-03T00:00:00Z,28.9818,-94.9186,2.0,257.8117192,18.04676425,-99999.0,'11111222,11111222,99999999' 
TABS,ioos:station:wmo:42043:1,2002-01-03T00:30:00Z,28.9818,-94.9186,2.0,240.538898,15.75756644,-99999.0,'11111222,11111222,99999999' 
TABS,ioos:station:wmo:42043:1,2002-01-03T01:00:00Z,28.9818,-94.9186,2.0,235.7326672,15.14963036,-99999.0,'11111222,11111222,99999999' 
TABS,ioos:station:wmo:42043:1,2002-01-03T01:30:00Z,28.9818,-94.9186,2.0,233.5008169,14.2062979,-99999.0,'11111222,11111222,99999999' 
TABS,ioos:station:wmo:42043:1,2002-01-03T02:00:00Z,28.9818,-94.9186,2.0,231.3550048,35.45300692,-99999.0,'11111222,11111222,99999999' 
TABS,ioos:station:wmo:42043:1,2002-01-03T02:30:00Z,28.9818,-94.9186,2.0,232.7362898,26.21061808,-99999.0,'11111222,11111222,99999999' 
TABS,ioos:station:wmo:42043:1,2002-01-03T03:00:00Z,28.9818,-94.9186,2.0,232.5706624,23.77513197,-99999.0,'11111222,11111222,99999999' 
TABS,ioos:station:wmo:42043:1,2002-01-03T03:30:00Z,28.9818,-94.9186,2.0,233.3454278,22.84816185,-99999.0,'11111222,11111222,99999999' 
TABS,ioos:station:wmo:42043:1,2002-01-03T04:00:00Z,28.9818,-94.9186,2.0,226.5962859,18.52631912,-99999.0,'11111222,11111222,99999999' 
TABS,ioos:station:wmo:42043:1,2002-01-03T04:30:00Z,28.9818,-94.9186,2.0,223.5927057,18.14275889,-99999.0,'11111222,11111222,99999999' 
TABS,ioos:station:wmo:42043:1,2002-01-03T05:00:00Z,28.9818,-94.9186,2.0,215.9053484,11.76566615,-99999.0,'11111222,11111222,99999999' 
TABS,ioos:station:wmo:42043:1,2002-01-03T05:30:00Z,28.9818,-94.9186,2.0,206.0869068,10.18788005,-99999.0,'11111222,11111222,99999999' 
TABS,ioos:station:wmo:42043:1,2002-01-03T06:00:00Z,28.9818,-94.9186,2.0,208.1156799,10.07941467,-99999.0,'11111222,11111222,99999999' 
TABS,ioos:station:wmo:42043:1,2002-01-03T07:00:00Z,28.9818,-94.9186,2.0,211.5137885,11.24911108,-99999.0,'11111222,11111222,99999999' 
TABS,ioos:station:wmo:42043:1,2002-01-03T07:30:00Z,28.9818,-94.9186,2.0,196.4543791,6.954840041,-99999.0,'11133222,11111222,99999999' 
TABS,ioos:station:wmo:42043:1,2002-01-03T08:00:00Z,28.9818,-94.9186,2.0,207.1296888,17.23644975,-99999.0,'11111222,11111222,99999999' 
TABS,ioos:station:wmo:42043:1,2002-01-03T08:30:00Z,28.9818,-94.9186,2.0,213.9228921,15.67873082,-99999.0,'11111222,11111222,99999999' 
TABS,ioos:station:wmo:42043:1,2002-01-03T09:00:00Z,28.9818,-94.9186,2.0,216.5420969,12.59620578,-99999.0,'11111222,11111222,99999999' 
TABS,ioos:station:wmo:42043:1,2002-01-03T09:30:00Z,28.9818,-94.9186,2.0,208.5519712,8.640891158,-99999.0,'11133222,11111222,99999999' 
TABS,ioos:station:wmo:42043:1,2002-01-03T10:00:00Z,28.9818,-94.9186,2.0,231.0252452,7.679179644,-99999.0,'11133222,11111222,99999999' 
TABS,ioos:station:wmo:42043:1,2002-01-03T10:30:00Z,28.9818,-94.9186,2.0,224.5321872,7.799647428,-99999.0,'11133222,11111222,99999999' 
TABS,ioos:station:wmo:42043:1,2002-01-03T11:00:00Z,28.9818,-94.9186,2.0,212.5784599,5.720034965,-99999.0,'11133222,11111222,99999999' 
TABS,ioos:station:wmo:42043:1,2002-01-03T11:30:00Z,28.9818,-94.9186,2.0,211.2688847,6.434718331,-99999.0,'11133222,11111222,99999999' 
TABS,ioos:station:wmo:42043:1,2002-01-03T12:00:00Z,28.9818,-94.9186,2.0,195.8440309,6.226564061,-99999.0,'11133222,11111222,99999999' 
TABS,ioos:station:wmo:42043:1,2002-01-03T12:30:00Z,28.9818,-94.9186,2.0,221.7011576,7.004891148,-99999.0,'11133222,11111222,99999999' 
TABS,ioos:station:wmo:42043:1,2002-01-03T13:00:00Z,28.9818,-94.9186,2.0,204.3635721,7.102520679,-99999.0,'11133222,11111222,99999999' 
TABS,ioos:station:wmo:42043:1,2002-01-03T13:30:00Z,28.9818,-94.9186,2.0,222.9557107,10.11098907,-99999.0,'11111222,11111222,99999999' 
TABS,ioos:station:wmo:42043:1,2002-01-03T14:00:00Z,28.9818,-94.9186,2.0,226.555146,17.97420652,-99999.0,'11111222,11111222,99999999' 
TABS,ioos:station:wmo:42043:1,2002-01-03T14:30:00Z,28.9818,-94.9186,2.0,231.8915913,17.67812773,-99999.0,'11111222,11111222,99999999' 
TABS,ioos:station:wmo:42043:1,2002-01-03T15:00:00Z,28.9818,-94.9186,2.0,216.8913698,31.58400228,-99999.0,'11111222,11111222,99999999' 
TABS,ioos:station:wmo:42043:1,2002-01-03T16:00:00Z,28.9818,-94.9186,2.0,241.0049453,28.79961284,-99999.0,'11111222,11111222,99999999' 
TABS,ioos:station:wmo:42043:1,2002-01-03T16:30:00Z,28.9818,-94.9186,2.0,243.8196489,25.95239103,-99999.0,'11111222,11111222,99999999' 
TABS,ioos:station:wmo:42043:1,2002-01-03T17:00:00Z,28.9818,-94.9186,2.0,250.0874197,24.16467049,-99999.0,'11111222,11111222,99999999' 
TABS,ioos:station:wmo:42043:1,2002-01-03T17:30:00Z,28.9818,-94.9186,2.0,252.2321063,23.8894663,-99999.0,'11111222,11111222,99999999' 
TABS,ioos:station:wmo:42043:1,2002-01-03T18:00:00Z,28.9818,-94.9186,2.0,249.0861247,50.08990417,-99999.0,'11111222,11111222,99999999' 
TABS,ioos:station:wmo:42043:1,2002-01-03T18:30:00Z,28.9818,-94.9186,2.0,259.9134504,42.88272962,-99999.0,'11111222,11111222,99999999' 
TABS,ioos:station:wmo:42043:1,2002-01-03T19:00:00Z,28.9818,-94.9186,2.0,261.1525399,43.17366327,-99999.0,'11111222,11111222,99999999' 
TABS,ioos:station:wmo:42043:1,2002-01-03T19:30:00Z,28.9818,-94.9186,2.0,261.8083315,42.3924899,-99999.0,'11111222,11111222,99999999' 
TABS,ioos:station:wmo:42043:1,2002-01-03T20:00:00Z,28.9818,-94.9186,2.0,264.2093218,45.79364585,-99999.0,'11111222,11111222,99999999' 
TABS,ioos:station:wmo:42043:1,2002-01-03T20:30:00Z,28.9818,-94.9186,2.0,272.1105151,38.56615096,-99999.0,'11111222,11111222,99999999' 
TABS,ioos:station:wmo:42043:1,2002-01-03T21:00:00Z,28.9818,-94.9186,2.0,281.9346369,36.89751889,-99999.0,'11111222,11111222,99999999' 
TABS,ioos:station:wmo:42043:1,2002-01-03T21:30:00Z,28.9818,-94.9186,2.0,267.6092051,37.64275495,-99999.0,'11111222,11111222,99999999' 
TABS,ioos:station:wmo:42043:1,2002-01-03T22:00:00Z,28.9818,-94.9186,2.0,281.4082347,34.43019895,-99999.0,'11111222,11111222,99999999' 
TABS,ioos:station:wmo:42043:1,2002-01-03T22:30:00Z,28.9818,-94.9186,2.0,294.6386394,32.45475158,-99999.0,'11111222,11111222,99999999' 
TABS,ioos:station:wmo:42043:1,2002-01-03T23:00:00Z,28.9818,-94.9186,2.0,294.9885088,26.48954888,-99999.0,'11111222,11111222,99999999' 
TABS,ioos:station:wmo:42043:1,2002-01-03T23:30:00Z,28.9818,-94.9186,2.0,308.3340993,24.42597183,-99999.0,'11111222,11111222,99999999' 
TABS,ioos:station:wmo:42043:1,2002-01-04T00:00:00Z,28.9818,-94.9186,2.0,288.7475093,28.43878514,-99999.0,'11111222,11111222,99999999' 
TABS,ioos:station:wmo:42043:1,2002-01-04T00:30:00Z,28.9818,-94.9186,2.0,294.7955742,25.9194483,-99999.0,'11111222,11111222,99999999' 
TABS,ioos:station:wmo:42043:1,2002-01-04T01:00:00Z,28.9818,-94.9186,2.0,304.2097595,21.11275681,-99999.0,'11111222,11111222,99999999' 
TABS,ioos:station:wmo:42043:1,2002-01-04T01:30:00Z,28.9818,-94.9186,2.0,307.8025772,20.03465248,-99999.0,'11111222,11111222,99999999' 
TABS,ioos:station:wmo:42043:1,2002-01-04T02:00:00Z,28.9818,-94.9186,2.0,302.0447883,15.54911251,-99999.0,'11111222,11111222,99999999' 
TABS,ioos:station:wmo:42043:1,2002-01-04T02:30:00Z,28.9818,-94.9186,2.0,288.597113,15.67863514,-99999.0,'11111222,11111222,99999999' 
TABS,ioos:station:wmo:42043:1,2002-01-04T03:00:00Z,28.9818,-94.9186,2.0,295.2801464,13.95657551,-99999.0,'11111222,11111222,99999999' 
TABS,ioos:station:wmo:42043:1,2002-01-04T03:30:00Z,28.9818,-94.9186,2.0,290.1110511,11.89525115,-99999.0,'11111222,11111222,99999999' 
TABS,ioos:station:wmo:42043:1,2002-01-04T04:00:00Z,28.9818,-94.9186,2.0,299.700662,9.566801973,-99999.0,'11133222,11111222,99999999' 
TABS,ioos:station:wmo:42043:1,2002-01-04T05:00:00Z,28.9818,-94.9186,2.0,287.6918726,7.798833246,-99999.0,'11133222,11111222,99999999' 
TABS,ioos:station:wmo:42043:1,2002-01-04T05:30:00Z,28.9818,-94.9186,2.0,302.5503483,6.133424818,-99999.0,'11133222,11111222,99999999' 
TABS,ioos:station:wmo:42043:1,2002-01-04T06:00:00Z,28.9818,-94.9186,2.0,265.6335218,5.385629025,-99999.0,'11133222,11111222,99999999' 
TABS,ioos:station:wmo:42043:1,2002-01-04T07:00:00Z,28.9818,-94.9186,2.0,280.3352882,8.528364439,-99999.0,'11133222,11111222,99999999' 
TABS,ioos:station:wmo:42043:1,2002-01-04T07:30:00Z,28.9818,-94.9186,2.0,295.7809032,11.10535456,-99999.0,'11111222,11111222,99999999' 
TABS,ioos:station:wmo:42043:1,2002-01-04T08:00:00Z,28.9818,-94.9186,2.0,308.2632794,12.17559855,-99999.0,'11111222,11111222,99999999' 
TABS,ioos:station:wmo:42043:1,2002-01-04T08:30:00Z,28.9818,-94.9186,2.0,296.0587024,7.079668071,-99999.0,'11133222,11111222,99999999' 
TABS,ioos:station:wmo:42043:1,2002-01-04T09:00:00Z,28.9818,-94.9186,2.0,301.3253157,5.712731396,-99999.0,'11133222,11111222,99999999' 
TABS,ioos:station:wmo:42043:1,2002-01-04T09:30:00Z,28.9818,-94.9186,2.0,293.8357775,3.662362625,-99999.0,'11133222,11111222,99999999' 
TABS,ioos:station:wmo:42043:1,2002-01-04T10:00:00Z,28.9818,-94.9186,2.0,293.6297434,5.413917251,-99999.0,'11133222,11111222,99999999' 
TABS,ioos:station:wmo:42043:1,2002-01-04T10:30:00Z,28.9818,-94.9186,2.0,236.6435097,5.710735504,-99999.0,'11133222,11111222,99999999' 
TABS,ioos:station:wmo:42043:1,2002-01-04T11:00:00Z,28.9818,-94.9186,2.0,231.1527741,5.739416347,-99999.0,'11133222,11111222,99999999' 
TABS,ioos:station:wmo:42043:1,2002-01-04T12:30:00Z,28.9818,-94.9186,2.0,225.189824,12.784561,-99999.0,'11111222,11111222,99999999' 
TABS,ioos:station:wmo:42043:1,2002-01-04T13:00:00Z,28.9818,-94.9186,2.0,226.2113974,12.03764927,-99999.0,'11111222,11111222,99999999' 
TABS,ioos:station:wmo:42043:1,2002-01-04T14:00:00Z,28.9818,-94.9186,2.0,233.6164841,20.71874755,-99999.0,'11111222,11111222,99999999' 
TABS,ioos:station:wmo:42043:1,2002-01-04T15:00:00Z,28.9818,-94.9186,2.0,231.3328289,25.44851469,-99999.0,'11111222,11111222,99999999' 
TABS,ioos:station:wmo:42043:1,2002-01-04T16:00:00Z,28.9818,-94.9186,2.0,230.0489424,31.33328582,-99999.0,'11111222,11111222,99999999' 
TABS,ioos:station:wmo:42043:1,2002-01-04T17:00:00Z,28.9818,-94.9186,2.0,239.4384822,28.55693436,-99999.0,'11111222,11111222,99999999' 
TABS,ioos:station:wmo:42043:1,2002-01-04T17:30:00Z,28.9818,-94.9186,2.0,246.0070271,25.10951413,-99999.0,'11111222,11111222,99999999' 
TABS,ioos:station:wmo:42043:1,2002-01-04T18:00:00Z,28.9818,-94.9186,2.0,266.7732339,39.62280278,-99999.0,'11111222,11111222,99999999' 
TABS,ioos:station:wmo:42043:1,2002-01-04T18:30:00Z,28.9818,-94.9186,2.0,263.0051357,38.10356939,-99999.0,'11111222,11111222,99999999' 
TABS,ioos:station:wmo:42043:1,2002-01-04T19:00:00Z,28.9818,-94.9186,2.0,268.0871764,41.05286592,-99999.0,'11111222,11111222,99999999' 
TABS,ioos:station:wmo:42043:1,2002-01-04T19:30:00Z,28.9818,-94.9186,2.0,264.4706562,39.54397173,-99999.0,'11111222,11111222,99999999' 
TABS,ioos:station:wmo:42043:1,2002-01-04T20:00:00Z,28.9818,-94.9186,2.0,265.6571046,38.29994909,-99999.0,'11111222,11111222,99999999' 
TABS,ioos:station:wmo:42043:1,2002-01-04T20:30:00Z,28.9818,-94.9186,2.0,264.1364701,41.11508239,-99999.0,'11111222,11111222,99999999' 
TABS,ioos:station:wmo:42043:1,2002-01-04T21:00:00Z,28.9818,-94.9186,2.0,262.997238,45.77140264,-99999.0,'11111222,11111222,99999999' 
TABS,ioos:station:wmo:42043:1,2002-01-04T21:30:00Z,28.9818,-94.9186,2.0,264.8936986,41.01274192,-99999.0,'11111222,11111222,99999999' 
TABS,ioos:station:wmo:42043:1,2002-01-04T22:00:00Z,28.9818,-94.9186,2.0,260.2255275,35.04873892,-99999.0,'11111222,11111222,99999999' 